Elmendorf AFB, AK

7:03 PM AKST on February 20, 2018 (GMT -0900)
Elmendorf Air Force Base

Weather History for PAED - December, 2010

Change the Weather History Date:

Wednesday, December 22, 2010

  Actual Average Record
Temperature  
Mean Temperature 5 °F -  
Max Temperature 20 °F 18 °F 51 °F (1999)
Min Temperature -9 °F 6 °F -21 °F (1961)
Degree Days  
Heating Degree Days 60    
Moisture  
Dew Point -4 °F    
Average Humidity 75    
Maximum Humidity 84    
Minimum Humidity 50    
Precipitation  
Precipitation 0.00 in - - ()
Sea Level Pressure  
Sea Level Pressure 29.81 in    
Wind  
Wind Speed 4 mph (NE)    
Max Wind Speed 13 mph    
Max Gust Speed 18 mph    
Visibility 10 miles    
Events Snow    
Averages and records for this station are not official NWS values.
T = Trace of Precipitation, MM = Missing Value Source: NWS Daily Summary

Daily Weather History Graph

Daily Weather History Graph

Search for Another Location

Airport or City:

Trip Planner

Search our weather history database for the weather conditions in past years. The results will help you decide how hot, cold, wet, or windy it might be!

Date:

Astronomy

Dec. 22, 2010 Rise Set
Actual Time 10:14 AM AKST 3:41 PM AKST
Civil Twilight 9:12 AM AKST 4:43 PM AKST
Nautical Twilight 8:12 AM AKST 5:43 PM AKST
Astronomical Twilight 7:18 AM AKST 6:37 PM AKST
Moon 5:57 PM AKST (12/22) 11:09 AM AKST (12/22)
Length of Visible Light 7h 31m
Length of Day
5h 26m
Full, 97% of the Moon is Illuminated
Dec 22
Full
Dec 27
Last Quarter
Jan 4
New
Jan 12
First Quarter
Jan 19
Full

Hourly Weather History & Observations

Time (AKST) Temp. Windchill Dew Point Humidity Pressure Visibility Wind Dir Wind Speed Gust Speed Precip Events Conditions
12:55 AM -9.2 °F -22.5 °F -14.6 °F 77% 29.74 in 5.0 mi ENE 5.8 mph - N/A   Haze
1:55 AM -5.8 °F -14.5 °F -11.0 °F 78% 29.73 in 10.0 mi ENE 3.5 mph - N/A   Clear
2:55 AM -4.5 °F - -9.6 °F 79% 29.73 in 10.0 mi Calm Calm - N/A   Clear
3:55 AM -7.1 °F -18.1 °F -12.5 °F 77% 29.73 in 10.0 mi ENE 4.6 mph - N/A   Clear
4:55 AM -7.2 °F - -12.3 °F 79% 29.73 in 10.0 mi Calm Calm - N/A   Clear
5:55 AM -4.7 °F -17.2 °F -9.0 °F 82% 29.73 in 10.0 mi NE 5.8 mph - N/A   Clear
6:55 AM -3.6 °F -14.1 °F -8.3 °F 80% 29.73 in 10.0 mi ENE 4.6 mph - N/A   Clear
7:55 AM -1.5 °F - -6.3 °F 80% 29.74 in 10.0 mi Calm Calm - N/A   Clear
8:55 AM -5.3 °F -17.8 °F -9.9 °F 80% 29.75 in 10.0 mi ENE 5.8 mph - N/A   Clear
9:55 AM -2.4 °F - -6.9 °F 81% 29.76 in 10.0 mi Calm Calm - N/A   Clear
10:55 AM -2.0 °F - -6.5 °F 81% 29.78 in 10.0 mi Calm Calm - N/A   Clear
11:55 AM -5.8 °F - -11.2 °F 77% 29.80 in 10.0 mi Calm Calm - N/A   Clear
12:55 PM 2.8 °F - -1.8 °F 81% 29.80 in 10.0 mi Calm Calm - N/A   Clear
1:55 PM 5.4 °F - 1.4 °F 84% 29.80 in 10.0 mi Calm Calm - N/A   Clear
2:55 PM 5.7 °F - 1.0 °F 81% 29.81 in 10.0 mi Calm Calm - N/A   Clear
3:55 PM -0.9 °F - -6.5 °F 77% 29.82 in 10.0 mi Calm Calm - N/A   Clear
4:55 PM 0.7 °F - -3.8 °F 81% 29.84 in 10.0 mi Calm Calm - N/A   Clear
5:55 PM 0.5 °F - -3.8 °F 82% 29.87 in 10.0 mi Calm Calm - N/A   Clear
6:55 PM -3.6 °F -12.0 °F -8.5 °F 80% 29.88 in 10.0 mi ENE 3.5 mph - N/A   Clear
7:55 PM -2.6 °F - -7.4 °F 80% 29.89 in 10.0 mi Calm Calm - N/A   Clear
8:55 PM 17.6 °F 7.3 °F 7.2 °F 64% 29.90 in 10.0 mi North 8.1 mph - N/A   Clear
9:04 PM 19.4 °F 7.9 °F 6.8 °F 58% 29.91 in 10.0 mi North 10.4 mph - N/A Snow Light Snow
9:07 PM 19.4 °F 7.2 °F 6.8 °F 58% 29.91 in 10.0 mi NNE 11.5 mph - N/A   Clear
9:55 PM 19.8 °F 7.1 °F 6.8 °F 57% 29.92 in 10.0 mi NNE 12.7 mph - 0.00 in   Clear
10:55 PM 19.9 °F 8.6 °F 5.7 °F 54% 29.93 in 10.0 mi NNE 10.4 mph - N/A   Clear
11:55 PM 20.5 °F 8.0 °F 4.5 °F 50% 29.94 in 10.0 mi North 12.7 mph 18.4 mph N/A   Clear